Weather History for Page, AZ

Change the Weather History Date:

Wednesday, January 23, 2013

  Actual Average Record
Temperature  
Mean Temperature 34 °F -  
Max Temperature 42 °F 45 °F 56 °F (1967)
Min Temperature 26 °F 26 °F 15 °F (1963)
Degree Days  
Heating Degree Days 31    
Moisture  
Dew Point 18 °F    
Average Humidity 49    
Maximum Humidity 63    
Minimum Humidity 26    
Precipitation  
Precipitation 0.00 in - - ()
Sea Level Pressure  
Sea Level Pressure 30.40 in    
Wind  
Wind Speed 1 mph (WSW)    
Max Wind Speed 5 mph    
Max Gust Speed -    
Visibility 9 miles    
Events      
Averages and records for this station are not official NWS values.
T = Trace of Precipitation, MM = Missing Value Source: NWS Daily Summary

Daily Weather History Graph

Daily Weather History Graph

Search for Another Location

Airport:

Trip Planner

Search our weather history database for the weather conditions in past years. The results will help you decide how hot, cold, wet, or windy it might be!

Date:

Astronomy

Jan. 23, 2013 Rise Set
Actual Time 7:34 AM MST 5:41 PM MST
Civil Twilight 7:06 AM MST 6:09 PM MST
Nautical Twilight 6:34 AM MST 6:40 PM MST
Astronomical Twilight 6:04 AM MST 7:11 PM MST
Moon 2:56 PM MST (1/23) 4:47 AM MST (1/23)
Length of Visible Light 11h 03m
Length of Day
10h 07m
Waxing Gibbous, 89% of the Moon is Illuminated
Jan 23
Waxing Gibbous
Jan 26
Full
Feb 3
Last Quarter
Feb 10
New
Feb 17
First Quarter

Hourly Weather History & Observations

Time (MST) Temp. Windchill Dew Point Humidity Pressure Visibility Wind Dir Wind Speed Gust Speed Precip Events Conditions
12:53 AM 30.9 °F 26.2 °F 17.1 °F 57% 30.38 in 9.0 mi WSW 4.6 mph - N/A   Clear
1:53 AM 30.0 °F - 16.0 °F 56% 30.38 in 10.0 mi Calm Calm - N/A   Clear
2:53 AM 28.9 °F 25.2 °F 16.0 °F 58% 30.38 in 10.0 mi SW 3.5 mph - N/A   Clear
3:53 AM 28.9 °F - 16.0 °F 58% 30.38 in 8.0 mi Calm Calm - N/A   Clear
4:53 AM 27.0 °F - 16.0 °F 63% 30.40 in 6.0 mi Calm Calm - N/A   Haze
5:53 AM 28.0 °F - 16.0 °F 61% 30.42 in 10.0 mi Calm Calm - N/A   Clear
6:53 AM 27.0 °F - 16.0 °F 63% 30.44 in 9.0 mi Calm Calm - N/A   Clear
7:53 AM 27.0 °F 21.6 °F 16.0 °F 63% 30.45 in 6.0 mi WSW 4.6 mph - N/A   Haze
8:53 AM 32.0 °F - 18.0 °F 56% 30.45 in 10.0 mi Calm Calm - N/A   Clear
9:53 AM 32.0 °F - 18.0 °F 56% 30.46 in 10.0 mi Calm Calm - N/A   Clear
10:53 AM 36.0 °F - 19.0 °F 50% 30.47 in 10.0 mi Calm Calm - N/A   Clear
11:53 AM 37.9 °F - 19.9 °F 48% 30.45 in 10.0 mi Calm Calm - N/A   Clear
12:53 PM 39.0 °F - 18.0 °F 43% 30.42 in 10.0 mi Calm Calm - N/A   Clear
1:53 PM 39.9 °F 37.8 °F 19.0 °F 43% 30.40 in 10.0 mi NNE 3.5 mph - N/A   Clear
2:53 PM 42.1 °F 39.2 °F 19.0 °F 40% 30.36 in 10.0 mi NE 4.6 mph - N/A   Clear
3:53 PM 42.1 °F - 18.0 °F 38% 30.35 in 10.0 mi Calm Calm - N/A   Clear
4:53 PM 41.0 °F - 18.0 °F 40% 30.37 in 10.0 mi Calm Calm - N/A   Clear
5:53 PM 39.9 °F - 19.0 °F 43% 30.36 in 10.0 mi Calm Calm - N/A   Clear
6:53 PM 37.9 °F - 19.0 °F 47% 30.38 in 6.0 mi Calm Calm - N/A   Haze
7:53 PM 37.9 °F - 19.0 °F 47% 30.37 in 10.0 mi Calm Calm - N/A   Clear
8:53 PM 37.9 °F - 19.9 °F 48% 30.36 in 8.0 mi Calm Calm - N/A   Clear
9:53 PM 37.9 °F - 19.0 °F 47% 30.37 in 3.0 mi Calm Calm - N/A   Haze
10:53 PM 37.9 °F - 19.9 °F 48% 30.35 in 6.0 mi Calm Calm - N/A   Haze
11:53 PM 37.0 °F 34.5 °F 19.0 °F 48% 30.35 in 8.0 mi SSW 3.5 mph - N/A   Clear